Regional Weather Roundup
Issued by NWS

Home | Current Version | Previous Version | Text Only | Print | Product List | Glossary Off
Versions: 1 2 3 4 5 6 7 8 9 10 11 12 13 14 15 16 17 18 19 20 21 22 23 24 25 26 27 28 29 30 31 32 33 34 35 36 37 38 39 40 41 42 43 44 45 46 47 48 49 50

000
ASUS43 KLOT 311806
RWRIL

ILLINOIS REGIONAL WEATHER ROUNDUP
NATIONAL WEATHER SERVICE CHICAGO/ROMEOVILLE IL
100 PM CDT THU JUL 31 2014

NOTE: "FAIR" INDICATES FEW OR NO CLOUDS BELOW 12,000 FEET WITH NO
SIGNIFICANT WEATHER AND/OR OBSTRUCTIONS TO VISIBILITY.

* THESE STATIONS ARE NOT UNDER NWS QUALITY CONTROL. THEY ALSO MAY NOT
  REPORT WEATHER SUCH AS PRECIPITATION OR FOG.

ILZ001-002-007-009-015-016-024-311900-
NORTHWEST ILLINOIS

CITY           SKY/WX    TMP DP  RH WIND       PRES   REMARKS
MOLINE         MOSUNNY   82  62  50 W12       30.07F HX  83
6HR MIN TEMP:  60; 6HR MAX TEMP:  82;

STERLING*      MOSUNNY   82  63  51 W14G21    30.07S HX  83
SAVANNA*       MOSUNNY   82  56  41 W8        30.06S HX  82
$$

ILZ003-004-008-010-011-017-018-311900-
NORTH CENTRAL ILLINOIS

CITY           SKY/WX    TMP DP  RH WIND       PRES   REMARKS
ROCKFORD       MOSUNNY   81  56  42 W14       30.06F HX  81
6HR MIN TEMP:  58; 6HR MAX TEMP:  81;

FREEPORT*      SUNNY     78  61  56 W10       30.08S
ROCHELLE*      SUNNY     80  58  46 W10       30.06F HX  80
DE KALB*       MOSUNNY   77  60  55 NW10G21   30.07S
PERU*          MOSUNNY   78  62  57 W9        30.07F HX  80
$$

ILZ005-006-012>014-019>023-311900-
NORTHEAST ILLINOIS

CITY           SKY/WX    TMP DP  RH WIND       PRES   REMARKS
CHICAGO-OHARE  MOSUNNY   81  53  37 W16G22    30.03S HX  80
6HR MIN TEMP:  64; 6HR MAX TEMP:  82;

CHICAGO-MIDWAY MOSUNNY   83  58  42 W15       30.04S HX  83
6HR MIN TEMP:  65; 6HR MAX TEMP:  83;

AURORA         MOSUNNY   80  60  50 W9        30.06S HX  81
6HR MIN TEMP:  57; 6HR MAX TEMP:  80;

LANSING*       MOSUNNY   80  60  50 W16       30.05S HX  81
JOLIET*        MOSUNNY   79  58  49 W8        30.06F HX  80
WAUKEGAN       PTSUNNY   79  58  48 VRB6      30.02S HX  80
6HR MIN TEMP:  63; 6HR MAX TEMP:  80;

DUPAGE AIRPORT MOSUNNY   81  59  47 W13       30.04S HX  81
6HR MIN TEMP:  59; 6HR MAX TEMP:  82;

KANKAKEE*      SUNNY     79  62  57 W9        30.08S HX  80
WHEELING       SUNNY     83  54  36 W10       30.04S HX  82
6HR MIN TEMP:  63; 6HR MAX TEMP:  83;

MORRIS*        SUNNY     80  64  56 W10       30.06S HX  82
ROMEOVILLE*    SUNNY     79  60  51 W8G17     30.06S HX  80
NORTHERLY ISL    N/A     80  55  42 W6          N/A  HX  80
$$

LMZ740>746-311900-
SOUTHERN LAKE MICHIGAN

STATION/POSITION SKY/WX   TEMP    WIND        PRES    VSBY  WAVE
                          AIR SEA DIR/SP/G                  HT/PER
                          (F)     (DEG/KT/KT) (MB)    (MI)  (FT/S)
SOUTHERN BUOY              64 63  210/  6/  6 1016.9F         1
WAUKEGAN HARBOR            78     290/ 13/ 20   N/A
HARRISON CRIB              77     260/ 13/ 18   N/A
BURNHAM HARBOR             80     280/  8/ 15   N/A
CALUMET HARBOR             79     220/  7/ 14 1015.9S
BURNS HARBOR               73     280/ 10/ 12 1018.3S
MICHIGAN CITY              72     240/  8/  9   N/A
MICHIGAN CITY 6N           71 70  250/  4/  4   N/A           1
ST. JOSEPH                 69 69  200/  6/  8   N/A           1/ 3
$$

ILZ025>027-034>036-040-047-049-050-058-095>099-311900-
WEST-CENTRAL ILLINOIS

CITY           SKY/WX    TMP DP  RH WIND       PRES   REMARKS
QUINCY         PTSUNNY   78  58  49 VRB5      30.10F
GALESBURG*     MOSUNNY   82  64  53 W7        30.09F HX  83
MACOMB*        MOSUNNY   78  62  57 W7        30.11F HX  80
JACKSONVILLE*  MOSUNNY   82  62  52 NW6       30.11S HX  82
PITTSFIELD*    MOSUNNY   80  61  52 S3        30.11S HX  81
$$

ILZ028>032-037-038-041>044-048-051>054-059>061-311900-
CENTRAL ILLINOIS

CITY           SKY/WX    TMP DP  RH WIND       PRES   REMARKS
PONTIAC        SUNNY     81  63  54 W8        30.08S HX  82
DECATUR        MOSUNNY   80  59  48 SW3       30.10S HX  81
PEORIA         MOSUNNY   83  60  45 W6        30.08F HX  83
6HR MIN TEMP:  62; 6HR MAX TEMP:  83;

LACON*         MOSUNNY   80  58  46 W7        30.07S HX  81
LINCOLN*       MOSUNNY   83  61  46 NW3       30.06F HX  83
SPRINGFIELD    SUNNY     83  60  45 VRB6      30.10S HX  83
6HR MIN TEMP:  60; 6HR MAX TEMP:  83;

TAYLORVILLE    SUNNY     79  61  53 W3        30.10S HX  80
$$

ILZ033-039-045-046-055>057-062-063-311900-
EAST-CENTRAL ILLINOIS

CITY           SKY/WX    TMP DP  RH WIND       PRES   REMARKS
CHAMPAIGN      SUNNY     79  60  52 W6        30.10S HX  80
DANVILLE*      SUNNY     77  60  55 NW5       30.07S
RANTOUL*       SUNNY     81  58  45 W5        30.10F HX  81
MATTOON        MOSUNNY   77  60  55 NW7       30.09F
PARIS*         MOSUNNY   78  63  59 CALM      30.10F HX  80
$$

ILZ079-100>102-311900-
SOUTHWEST ILLINOIS

CITY           SKY/WX    TMP DP  RH WIND       PRES   REMARKS
ALTON          PTSUNNY   79  61  53 W7        30.10F HX  80
BELLEVILLE     CLOUDY    82  62  52 NE5       30.08F HX  82
CAHOKIA*       MOSUNNY   84  58  40 VRB3      30.08F HX  83
SPARTA*        PTSUNNY   79  63  57 S5        30.10F HX  80
$$

ILZ064>066-069>071-074>076-080>082-084>086-088>090-092>094-311900-
SOUTH-CENTRAL ILLINOIS

CITY           SKY/WX    TMP DP  RH WIND       PRES   REMARKS
CARBONDALE     MOSUNNY   79  62  56 W7        30.10S HX  80
6HR MIN TEMP:  60; 6HR MAX TEMP:  82;

CAIRO*         PTSUNNY   80  65  60 S6        30.11F HX  81
EFFINGHAM*     MOSUNNY   82  50  33 CALM      30.10S HX  80
MARION         PTSUNNY   82  63  51 S9        30.11S HX  83
MT. VERNON     PTSUNNY   84  63  48 S7        30.11S HX  85
CENTRALIA*     MOSUNNY   83  58  41 S6        30.10S HX  83
SALEM*         PTSUNNY  N/A N/A N/A SW7       30.10S
METROPOLIS*    PTSUNNY   80  56  44 S6        30.10S HX  80
$$

ILZ067-068-072-073-078-083-087-091-311900-
SOUTHEAST ILLINOIS

CITY           SKY/WX    TMP DP  RH WIND       PRES   REMARKS
LAWRENCEVILLE  PTSUNNY   80  62  54 NW7       30.10S HX  81
FLORA*         SUNNY     79  59  49 SW6       30.10S HX  80
FAIRFIELD*     PTSUNNY   81  64  57 CALM      30.10S HX  82
HARRISBURG*    MOSUNNY   80  63  57 W3        30.11F HX  81
ROBINSON*      MOSUNNY   81  64  56 W6        30.11S HX  82
CARMI*         MOSUNNY   82  66  57 S5        30.10S HX  85
$$

ABBREVIATIONS USED IN REMARKS
   TC - TEMPERATURE IN CELSIUS
  WCI - WIND CHILL INDEX
   HX - HEAT INDEX
  VSB - VISIBILITY
$$



USA.gov is the U.S. government's official web portal to all federal, state and local government web resources and services.